owner,sensor,date,latitude,longitude,vertical_datum,sea_water_practical_salinity,qcFlag 
NERRS,ioos:station:NOAA.NERRS:apaebwq:1,2014-07-01T16:45:00Z,29.7858,-84.8752,1.79,2.3,1111122 
NERRS,ioos:station:NOAA.NERRS:apaebwq:1,2014-07-01T17:45:00Z,29.7858,-84.8752,1.76,2.3,1111122 
NERRS,ioos:station:NOAA.NERRS:apaebwq:1,2014-07-01T20:45:00Z,29.7858,-84.8752,2.04,2.1,1111122 
NERRS,ioos:station:NOAA.NERRS:apaebwq:1,2014-07-01T23:45:00Z,29.7858,-84.8752,2.03,2.6,1111122 
NERRS,ioos:station:NOAA.NERRS:apaebwq:1,2014-07-02T01:45:00Z,29.7858,-84.8752,1.87,2.4,1111122 
NERRS,ioos:station:NOAA.NERRS:apaebwq:1,2014-07-02T04:45:00Z,29.7858,-84.8752,1.62,2.7,1111122 
NERRS,ioos:station:NOAA.NERRS:apaebwq:1,2014-07-02T12:45:00Z,29.7858,-84.8752,2.09,3.3,1111122 
NERRS,ioos:station:NOAA.NERRS:apaebwq:1,2014-07-02T15:45:00Z,29.7858,-84.8752,1.95,3.2,1111122 
NERRS,ioos:station:NOAA.NERRS:apaebwq:1,2014-07-02T18:15:00Z,29.7858,-84.8752,1.82,3.1,1111122 
NERRS,ioos:station:NOAA.NERRS:apaebwq:1,2014-07-02T22:45:00Z,29.7858,-84.8752,2.12,3.1,1111122 
NERRS,ioos:station:NOAA.NERRS:apaebwq:1,2014-07-02T23:45:00Z,29.7858,-84.8752,2.09,3.1,1111122 
NERRS,ioos:station:NOAA.NERRS:apaebwq:1,2014-07-03T00:45:00Z,29.7858,-84.8752,2.03,3.1,1111122 
NERRS,ioos:station:NOAA.NERRS:apaebwq:1,2014-07-03T02:45:00Z,29.7858,-84.8752,1.82,2.8,1111122 
NERRS,ioos:station:NOAA.NERRS:apaebwq:1,2014-07-03T03:45:00Z,29.7858,-84.8752,1.75,2.7,1111122 
NERRS,ioos:station:NOAA.NERRS:apaebwq:1,2014-07-03T04:45:00Z,29.7858,-84.8752,1.7,2.7,1111122 
NERRS,ioos:station:NOAA.NERRS:apaebwq:1,2014-07-03T05:45:00Z,29.7858,-84.8752,1.7,2.7,1111122 
NERRS,ioos:station:NOAA.NERRS:apaebwq:1,2014-07-03T06:45:00Z,29.7858,-84.8752,1.78,2.7,1111122 
NERRS,ioos:station:NOAA.NERRS:apaebwq:1,2014-07-03T07:45:00Z,29.7858,-84.8752,1.75,2.7,1111122 
NERRS,ioos:station:NOAA.NERRS:apaebwq:1,2014-07-03T08:45:00Z,29.7858,-84.8752,1.8,2.7,1111122 
NERRS,ioos:station:NOAA.NERRS:apaebwq:1,2014-07-03T09:45:00Z,29.7858,-84.8752,1.83,2.7,1111122 
NERRS,ioos:station:NOAA.NERRS:apaebwq:1,2014-07-03T10:45:00Z,29.7858,-84.8752,1.98,2.8,1111122 
NERRS,ioos:station:NOAA.NERRS:apaebwq:1,2014-07-03T12:45:00Z,29.7858,-84.8752,2.15,3.4,1111122 
NERRS,ioos:station:NOAA.NERRS:apaebwq:1,2014-07-03T13:45:00Z,29.7858,-84.8752,2.19,3.4,1111122 
NERRS,ioos:station:NOAA.NERRS:apaebwq:1,2014-07-03T14:45:00Z,29.7858,-84.8752,2.13,3.6,1111122 
NERRS,ioos:station:NOAA.NERRS:apaebwq:1,2014-07-03T16:45:00Z,29.7858,-84.8752,2.0,3.8,1111122 
NERRS,ioos:station:NOAA.NERRS:apaebwq:1,2014-07-03T17:45:00Z,29.7858,-84.8752,1.92,3.5,1111122 
NERRS,ioos:station:NOAA.NERRS:apaebwq:1,2014-07-03T18:45:00Z,29.7858,-84.8752,1.93,3.4,1111122 
NERRS,ioos:station:NOAA.NERRS:apaebwq:1,2014-07-03T22:45:00Z,29.7858,-84.8752,2.01,3.0,1111122 
NERRS,ioos:station:NOAA.NERRS:apaebwq:1,2014-07-03T23:45:00Z,29.7858,-84.8752,2.0,3.0,1111122 
NERRS,ioos:station:NOAA.NERRS:apaebwq:1,2014-07-04T00:45:00Z,29.7858,-84.8752,2.07,3.0,1111122 
NERRS,ioos:station:NOAA.NERRS:apaebwq:1,2014-07-04T01:45:00Z,29.7858,-84.8752,2.11,3.0,1111122 
NERRS,ioos:station:NOAA.NERRS:apaebwq:1,2014-07-04T02:45:00Z,29.7858,-84.8752,2.03,3.1,1111122 
NERRS,ioos:station:NOAA.NERRS:apaebwq:1,2014-07-04T03:45:00Z,29.7858,-84.8752,1.92,3.0,1111122 
NERRS,ioos:station:NOAA.NERRS:apaebwq:1,2014-07-04T04:45:00Z,29.7858,-84.8752,1.84,2.8,1111122 
NERRS,ioos:station:NOAA.NERRS:apaebwq:1,2014-07-04T06:45:00Z,29.7858,-84.8752,1.79,2.8,1111122 
NERRS,ioos:station:NOAA.NERRS:apaebwq:1,2014-07-04T07:45:00Z,29.7858,-84.8752,1.79,2.8,1111122 
NERRS,ioos:station:NOAA.NERRS:apaebwq:1,2014-07-04T08:45:00Z,29.7858,-84.8752,1.82,2.8,1111122 
NERRS,ioos:station:NOAA.NERRS:apaebwq:1,2014-07-04T09:45:00Z,29.7858,-84.8752,1.86,2.8,1111122 
NERRS,ioos:station:NOAA.NERRS:apaebwq:1,2014-07-04T10:45:00Z,29.7858,-84.8752,1.96,2.9,1111122 
NERRS,ioos:station:NOAA.NERRS:apaebwq:1,2014-07-04T11:45:00Z,29.7858,-84.8752,2.09,3.2,1111122 
NERRS,ioos:station:NOAA.NERRS:apaebwq:1,2014-07-04T12:45:00Z,29.7858,-84.8752,2.14,3.3,1111122 
NERRS,ioos:station:NOAA.NERRS:apaebwq:1,2014-07-04T13:45:00Z,29.7858,-84.8752,2.14,3.4,1111122 
NERRS,ioos:station:NOAA.NERRS:apaebwq:1,2014-07-04T14:45:00Z,29.7858,-84.8752,2.11,3.4,1111122 
NERRS,ioos:station:NOAA.NERRS:apaebwq:1,2014-07-04T15:45:00Z,29.7858,-84.8752,2.08,3.4,1111122 
NERRS,ioos:station:NOAA.NERRS:apaebwq:1,2014-07-04T16:45:00Z,29.7858,-84.8752,2.04,3.5,1111122 
NERRS,ioos:station:NOAA.NERRS:apaebwq:1,2014-07-04T17:45:00Z,29.7858,-84.8752,1.94,3.3,1111122 
NERRS,ioos:station:NOAA.NERRS:apaebwq:1,2014-07-04T18:45:00Z,29.7858,-84.8752,1.86,3.2,1111122 
NERRS,ioos:station:NOAA.NERRS:apaebwq:1,2014-07-04T19:45:00Z,29.7858,-84.8752,1.81,3.3,1111122 
NERRS,ioos:station:NOAA.NERRS:apaebwq:1,2014-07-04T20:45:00Z,29.7858,-84.8752,1.8,3.3,1111122 
NERRS,ioos:station:NOAA.NERRS:apaebwq:1,2014-07-04T21:45:00Z,29.7858,-84.8752,1.83,3.1,1111122 
NERRS,ioos:station:NOAA.NERRS:apaebwq:1,2014-07-04T22:45:00Z,29.7858,-84.8752,1.87,3.1,1111122 
NERRS,ioos:station:NOAA.NERRS:apaebwq:1,2014-07-04T23:45:00Z,29.7858,-84.8752,1.98,3.1,1111122 
NERRS,ioos:station:NOAA.NERRS:apaebwq:1,2014-07-05T01:45:00Z,29.7858,-84.8752,2.06,3.2,1111122 
NERRS,ioos:station:NOAA.NERRS:apaebwq:1,2014-07-05T02:45:00Z,29.7858,-84.8752,2.01,3.2,1111122 
NERRS,ioos:station:NOAA.NERRS:apaebwq:1,2014-07-05T03:45:00Z,29.7858,-84.8752,1.93,3.0,1111122 
NERRS,ioos:station:NOAA.NERRS:apaebwq:1,2014-07-05T04:45:00Z,29.7858,-84.8752,1.86,3.0,1111122 
NERRS,ioos:station:NOAA.NERRS:apaebwq:1,2014-07-05T05:45:00Z,29.7858,-84.8752,1.82,3.0,1111122 
NERRS,ioos:station:NOAA.NERRS:apaebwq:1,2014-07-05T06:45:00Z,29.7858,-84.8752,1.78,3.0,1111122 
NERRS,ioos:station:NOAA.NERRS:apaebwq:1,2014-07-05T07:45:00Z,29.7858,-84.8752,1.74,2.9,1111122 
NERRS,ioos:station:NOAA.NERRS:apaebwq:1,2014-07-05T08:45:00Z,29.7858,-84.8752,1.74,2.9,1111122 
NERRS,ioos:station:NOAA.NERRS:apaebwq:1,2014-07-05T09:45:00Z,29.7858,-84.8752,1.8,3.0,1111122 
NERRS,ioos:station:NOAA.NERRS:apaebwq:1,2014-07-05T10:45:00Z,29.7858,-84.8752,1.92,3.1,1111122 
NERRS,ioos:station:NOAA.NERRS:apaebwq:1,2014-07-05T11:45:00Z,29.7858,-84.8752,2.05,3.3,1111122 
NERRS,ioos:station:NOAA.NERRS:apaebwq:1,2014-07-05T12:45:00Z,29.7858,-84.8752,2.14,3.5,1111122 
NERRS,ioos:station:NOAA.NERRS:apaebwq:1,2014-07-05T13:45:00Z,29.7858,-84.8752,2.2,3.7,1111122 
NERRS,ioos:station:NOAA.NERRS:apaebwq:1,2014-07-05T14:45:00Z,29.7858,-84.8752,2.19,3.8,1111122 
NERRS,ioos:station:NOAA.NERRS:apaebwq:1,2014-07-05T15:45:00Z,29.7858,-84.8752,2.14,3.8,1111122 
NERRS,ioos:station:NOAA.NERRS:apaebwq:1,2014-07-05T16:45:00Z,29.7858,-84.8752,2.07,3.7,1111122 
NERRS,ioos:station:NOAA.NERRS:apaebwq:1,2014-07-05T17:45:00Z,29.7858,-84.8752,2.0,3.6,1111122 
NERRS,ioos:station:NOAA.NERRS:apaebwq:1,2014-07-05T18:45:00Z,29.7858,-84.8752,1.93,3.3,1111122 
NERRS,ioos:station:NOAA.NERRS:apaebwq:1,2014-07-05T19:45:00Z,29.7858,-84.8752,1.85,3.2,1111122 
NERRS,ioos:station:NOAA.NERRS:apaebwq:1,2014-07-05T20:45:00Z,29.7858,-84.8752,1.82,3.1,1111122 
NERRS,ioos:station:NOAA.NERRS:apaebwq:1,2014-07-05T21:45:00Z,29.7858,-84.8752,1.83,3.1,1111122 
NERRS,ioos:station:NOAA.NERRS:apaebwq:1,2014-07-05T22:45:00Z,29.7858,-84.8752,1.88,3.1,1111122 
NERRS,ioos:station:NOAA.NERRS:apaebwq:1,2014-07-05T23:45:00Z,29.7858,-84.8752,1.95,3.1,1111122 
NERRS,ioos:station:NOAA.NERRS:apaebwq:1,2014-07-06T00:45:00Z,29.7858,-84.8752,1.99,3.1,1111122 
NERRS,ioos:station:NOAA.NERRS:apaebwq:1,2014-07-06T01:45:00Z,29.7858,-84.8752,2.02,3.1,1111122 
NERRS,ioos:station:NOAA.NERRS:apaebwq:1,2014-07-06T02:45:00Z,29.7858,-84.8752,2.05,3.3,1111122 
NERRS,ioos:station:NOAA.NERRS:apaebwq:1,2014-07-06T03:45:00Z,29.7858,-84.8752,2.07,3.3,1111122 
NERRS,ioos:station:NOAA.NERRS:apaebwq:1,2014-07-06T04:45:00Z,29.7858,-84.8752,2.02,3.4,1111122 
NERRS,ioos:station:NOAA.NERRS:apaebwq:1,2014-07-06T06:45:00Z,29.7858,-84.8752,1.93,3.5,1111122 
NERRS,ioos:station:NOAA.NERRS:apaebwq:1,2014-07-06T07:45:00Z,29.7858,-84.8752,1.9,3.5,1111122 
NERRS,ioos:station:NOAA.NERRS:apaebwq:1,2014-07-06T08:45:00Z,29.7858,-84.8752,1.9,3.5,1111122 
NERRS,ioos:station:NOAA.NERRS:apaebwq:1,2014-07-06T09:45:00Z,29.7858,-84.8752,1.94,4.3,1111122 
NERRS,ioos:station:NOAA.NERRS:apaebwq:1,2014-07-06T10:45:00Z,29.7858,-84.8752,2.01,4.4,1111122 
NERRS,ioos:station:NOAA.NERRS:apaebwq:1,2014-07-06T11:45:00Z,29.7858,-84.8752,2.08,3.8,1111122 
NERRS,ioos:station:NOAA.NERRS:apaebwq:1,2014-07-06T12:45:00Z,29.7858,-84.8752,2.16,3.8,1111122 
NERRS,ioos:station:NOAA.NERRS:apaebwq:1,2014-07-06T13:45:00Z,29.7858,-84.8752,2.26,4.3,1111122 
NERRS,ioos:station:NOAA.NERRS:apaebwq:1,2014-07-06T14:45:00Z,29.7858,-84.8752,2.31,4.4,1111122 
NERRS,ioos:station:NOAA.NERRS:apaebwq:1,2014-07-06T16:45:00Z,29.7858,-84.8752,2.16,3.9,1111122 
NERRS,ioos:station:NOAA.NERRS:apaebwq:1,2014-07-06T17:45:00Z,29.7858,-84.8752,2.08,3.7,1111122 
NERRS,ioos:station:NOAA.NERRS:apaebwq:1,2014-07-06T18:45:00Z,29.7858,-84.8752,2.01,3.6,1111122 
NERRS,ioos:station:NOAA.NERRS:apaebwq:1,2014-07-06T19:45:00Z,29.7858,-84.8752,1.92,3.5,1111122 
NERRS,ioos:station:NOAA.NERRS:apaebwq:1,2014-07-06T20:45:00Z,29.7858,-84.8752,1.84,3.3,1111122 
NERRS,ioos:station:NOAA.NERRS:apaebwq:1,2014-07-06T21:45:00Z,29.7858,-84.8752,1.77,3.2,1111122 
NERRS,ioos:station:NOAA.NERRS:apaebwq:1,2014-07-06T22:45:00Z,29.7858,-84.8752,1.75,3.0,1111122 
NERRS,ioos:station:NOAA.NERRS:apaebwq:1,2014-07-06T23:45:00Z,29.7858,-84.8752,1.8,3.0,1111122 
NERRS,ioos:station:NOAA.NERRS:apaebwq:1,2014-07-07T00:45:00Z,29.7858,-84.8752,1.88,3.2,1111122 
NERRS,ioos:station:NOAA.NERRS:apaebwq:1,2014-07-07T01:45:00Z,29.7858,-84.8752,1.97,3.2,1111122 
NERRS,ioos:station:NOAA.NERRS:apaebwq:1,2014-07-07T02:45:00Z,29.7858,-84.8752,2.05,3.3,1111122 
NERRS,ioos:station:NOAA.NERRS:apaebwq:1,2014-07-07T03:45:00Z,29.7858,-84.8752,2.1,3.4,1111122 
NERRS,ioos:station:NOAA.NERRS:apaebwq:1,2014-07-07T04:45:00Z,29.7858,-84.8752,2.12,3.5,1111122 
NERRS,ioos:station:NOAA.NERRS:apaebwq:1,2014-07-07T05:45:00Z,29.7858,-84.8752,2.13,4.3,1111122 
NERRS,ioos:station:NOAA.NERRS:apaebwq:1,2014-07-07T06:45:00Z,29.7858,-84.8752,2.1,4.4,1111122 
NERRS,ioos:station:NOAA.NERRS:apaebwq:1,2014-07-07T07:45:00Z,29.7858,-84.8752,2.01,3.9,1111122 
NERRS,ioos:station:NOAA.NERRS:apaebwq:1,2014-07-07T08:45:00Z,29.7858,-84.8752,1.93,3.8,1111122 
NERRS,ioos:station:NOAA.NERRS:apaebwq:1,2014-07-07T09:45:00Z,29.7858,-84.8752,1.97,4.1,1111122 
NERRS,ioos:station:NOAA.NERRS:apaebwq:1,2014-07-07T10:45:00Z,29.7858,-84.8752,2.07,4.2,1111122 
NERRS,ioos:station:NOAA.NERRS:apaebwq:1,2014-07-07T11:45:00Z,29.7858,-84.8752,2.1,4.3,1111122 
NERRS,ioos:station:NOAA.NERRS:apaebwq:1,2014-07-07T12:45:00Z,29.7858,-84.8752,2.13,4.3,1111122 
NERRS,ioos:station:NOAA.NERRS:apaebwq:1,2014-07-07T13:45:00Z,29.7858,-84.8752,2.21,4.2,1111122 
NERRS,ioos:station:NOAA.NERRS:apaebwq:1,2014-07-07T14:45:00Z,29.7858,-84.8752,2.28,4.1,1111122 
NERRS,ioos:station:NOAA.NERRS:apaebwq:1,2014-07-07T16:45:00Z,29.7858,-84.8752,2.21,4.1,1111122 
NERRS,ioos:station:NOAA.NERRS:apaebwq:1,2014-07-07T17:45:00Z,29.7858,-84.8752,2.13,4.1,1111122 
NERRS,ioos:station:NOAA.NERRS:apaebwq:1,2014-07-07T19:45:00Z,29.7858,-84.8752,1.94,3.6,1111122 
NERRS,ioos:station:NOAA.NERRS:apaebwq:1,2014-07-07T22:45:00Z,29.7858,-84.8752,1.71,3.1,1111122 
NERRS,ioos:station:NOAA.NERRS:apaebwq:1,2014-07-07T23:45:00Z,29.7858,-84.8752,1.7,3.1,1111122 
NERRS,ioos:station:NOAA.NERRS:apaebwq:1,2014-07-08T00:45:00Z,29.7858,-84.8752,1.74,3.1,1111122 
NERRS,ioos:station:NOAA.NERRS:apaebwq:1,2014-07-08T01:45:00Z,29.7858,-84.8752,1.83,3.3,1111122 
NERRS,ioos:station:NOAA.NERRS:apaebwq:1,2014-07-08T02:45:00Z,29.7858,-84.8752,1.93,3.3,1111122 
NERRS,ioos:station:NOAA.NERRS:apaebwq:1,2014-07-08T03:45:00Z,29.7858,-84.8752,2.02,3.4,1111122 
NERRS,ioos:station:NOAA.NERRS:apaebwq:1,2014-07-08T04:45:00Z,29.7858,-84.8752,2.1,3.6,1111122 
NERRS,ioos:station:NOAA.NERRS:apaebwq:1,2014-07-08T05:45:00Z,29.7858,-84.8752,2.15,3.6,1111122 
NERRS,ioos:station:NOAA.NERRS:apaebwq:1,2014-07-08T06:45:00Z,29.7858,-84.8752,2.19,3.7,1111122 
NERRS,ioos:station:NOAA.NERRS:apaebwq:1,2014-07-08T07:45:00Z,29.7858,-84.8752,2.16,3.7,1111122 
NERRS,ioos:station:NOAA.NERRS:apaebwq:1,2014-07-08T08:45:00Z,29.7858,-84.8752,2.09,3.7,1111122 
NERRS,ioos:station:NOAA.NERRS:apaebwq:1,2014-07-08T10:45:00Z,29.7858,-84.8752,2.05,4.0,1111122 
NERRS,ioos:station:NOAA.NERRS:apaebwq:1,2014-07-08T11:45:00Z,29.7858,-84.8752,2.1,4.0,1111122 
NERRS,ioos:station:NOAA.NERRS:apaebwq:1,2014-07-08T12:45:00Z,29.7858,-84.8752,2.14,4.1,1111122 
NERRS,ioos:station:NOAA.NERRS:apaebwq:1,2014-07-08T13:45:00Z,29.7858,-84.8752,2.18,4.2,1111122 
NERRS,ioos:station:NOAA.NERRS:apaebwq:1,2014-07-08T14:45:00Z,29.7858,-84.8752,2.26,4.1,1111122 
NERRS,ioos:station:NOAA.NERRS:apaebwq:1,2014-07-08T15:45:00Z,29.7858,-84.8752,2.3,4.1,1111122 
NERRS,ioos:station:NOAA.NERRS:apaebwq:1,2014-07-08T16:45:00Z,29.7858,-84.8752,2.28,4.1,1111122 
NERRS,ioos:station:NOAA.NERRS:apaebwq:1,2014-07-08T17:45:00Z,29.7858,-84.8752,2.22,4.1,1111122 
NERRS,ioos:station:NOAA.NERRS:apaebwq:1,2014-07-08T18:45:00Z,29.7858,-84.8752,2.15,4.1,1111122 
NERRS,ioos:station:NOAA.NERRS:apaebwq:1,2014-07-08T19:45:00Z,29.7858,-84.8752,2.06,3.8,1111122 
NERRS,ioos:station:NOAA.NERRS:apaebwq:1,2014-07-08T20:45:00Z,29.7858,-84.8752,1.97,3.7,1111122 
NERRS,ioos:station:NOAA.NERRS:apaebwq:1,2014-07-08T22:45:00Z,29.7858,-84.8752,1.77,3.3,1111122 
NERRS,ioos:station:NOAA.NERRS:apaebwq:1,2014-07-09T00:45:00Z,29.7858,-84.8752,1.63,3.3,1111122 
NERRS,ioos:station:NOAA.NERRS:apaebwq:1,2014-07-09T01:45:00Z,29.7858,-84.8752,1.64,3.3,1111122 
NERRS,ioos:station:NOAA.NERRS:apaebwq:1,2014-07-09T02:45:00Z,29.7858,-84.8752,1.73,3.3,1111122 
NERRS,ioos:station:NOAA.NERRS:apaebwq:1,2014-07-09T03:45:00Z,29.7858,-84.8752,1.83,3.3,1111122 
NERRS,ioos:station:NOAA.NERRS:apaebwq:1,2014-07-09T04:45:00Z,29.7858,-84.8752,1.94,3.4,1111122 
NERRS,ioos:station:NOAA.NERRS:apaebwq:1,2014-07-09T05:45:00Z,29.7858,-84.8752,2.05,3.5,1111122 
NERRS,ioos:station:NOAA.NERRS:apaebwq:1,2014-07-09T06:45:00Z,29.7858,-84.8752,2.14,3.7,1111122 
NERRS,ioos:station:NOAA.NERRS:apaebwq:1,2014-07-09T07:45:00Z,29.7858,-84.8752,2.18,3.8,1111122 
NERRS,ioos:station:NOAA.NERRS:apaebwq:1,2014-07-09T08:45:00Z,29.7858,-84.8752,2.16,3.9,1111122 
NERRS,ioos:station:NOAA.NERRS:apaebwq:1,2014-07-09T09:45:00Z,29.7858,-84.8752,2.07,4.1,1111122 
NERRS,ioos:station:NOAA.NERRS:apaebwq:1,2014-07-09T10:45:00Z,29.7858,-84.8752,2.0,3.9,1111122 
NERRS,ioos:station:NOAA.NERRS:apaebwq:1,2014-07-09T11:45:00Z,29.7858,-84.8752,1.99,3.9,1111122 
NERRS,ioos:station:NOAA.NERRS:apaebwq:1,2014-07-09T12:45:00Z,29.7858,-84.8752,2.04,3.7,1111122 
NERRS,ioos:station:NOAA.NERRS:apaebwq:1,2014-07-09T14:45:00Z,29.7858,-84.8752,2.13,3.8,1111122 
NERRS,ioos:station:NOAA.NERRS:apaebwq:1,2014-07-09T16:45:00Z,29.7858,-84.8752,2.29,4.0,1111122 
NERRS,ioos:station:NOAA.NERRS:apaebwq:1,2014-07-09T17:45:00Z,29.7858,-84.8752,2.26,4.0,1111122 
NERRS,ioos:station:NOAA.NERRS:apaebwq:1,2014-07-09T19:45:00Z,29.7858,-84.8752,2.11,3.8,1111122 
NERRS,ioos:station:NOAA.NERRS:apaebwq:1,2014-07-09T20:45:00Z,29.7858,-84.8752,2.04,3.6,1111122 
NERRS,ioos:station:NOAA.NERRS:apaebwq:1,2014-07-09T21:45:00Z,29.7858,-84.8752,1.89,3.6,1111122 
NERRS,ioos:station:NOAA.NERRS:apaebwq:1,2014-07-09T22:45:00Z,29.7858,-84.8752,1.76,3.4,1111122 
NERRS,ioos:station:NOAA.NERRS:apaebwq:1,2014-07-09T23:45:00Z,29.7858,-84.8752,1.67,3.3,1111122 
NERRS,ioos:station:NOAA.NERRS:apaebwq:1,2014-07-10T00:45:00Z,29.7858,-84.8752,1.61,3.3,1111122 
NERRS,ioos:station:NOAA.NERRS:apaebwq:1,2014-07-10T02:45:00Z,29.7858,-84.8752,1.59,3.3,1111122 
NERRS,ioos:station:NOAA.NERRS:apaebwq:1,2014-07-10T03:45:00Z,29.7858,-84.8752,1.68,3.3,1111122 
NERRS,ioos:station:NOAA.NERRS:apaebwq:1,2014-07-10T04:45:00Z,29.7858,-84.8752,1.8,3.3,1111122 
NERRS,ioos:station:NOAA.NERRS:apaebwq:1,2014-07-10T05:45:00Z,29.7858,-84.8752,1.93,3.5,1111122 
NERRS,ioos:station:NOAA.NERRS:apaebwq:1,2014-07-10T06:45:00Z,29.7858,-84.8752,2.04,3.5,1111122 
NERRS,ioos:station:NOAA.NERRS:apaebwq:1,2014-07-10T07:45:00Z,29.7858,-84.8752,2.14,3.7,1111122 
NERRS,ioos:station:NOAA.NERRS:apaebwq:1,2014-07-10T09:45:00Z,29.7858,-84.8752,2.16,3.6,1111122 
NERRS,ioos:station:NOAA.NERRS:apaebwq:1,2014-07-10T10:45:00Z,29.7858,-84.8752,2.09,3.6,1111122 
NERRS,ioos:station:NOAA.NERRS:apaebwq:1,2014-07-10T11:45:00Z,29.7858,-84.8752,2.04,3.5,1111122 
NERRS,ioos:station:NOAA.NERRS:apaebwq:1,2014-07-10T12:45:00Z,29.7858,-84.8752,2.04,3.5,1111122 
NERRS,ioos:station:NOAA.NERRS:apaebwq:1,2014-07-10T13:45:00Z,29.7858,-84.8752,2.06,3.5,1111122 
NERRS,ioos:station:NOAA.NERRS:apaebwq:1,2014-07-10T14:45:00Z,29.7858,-84.8752,2.09,3.5,1111122 
NERRS,ioos:station:NOAA.NERRS:apaebwq:1,2014-07-10T15:45:00Z,29.7858,-84.8752,2.18,3.6,1111122 
NERRS,ioos:station:NOAA.NERRS:apaebwq:1,2014-07-10T17:45:00Z,29.7858,-84.8752,2.31,3.6,1111122 
NERRS,ioos:station:NOAA.NERRS:apaebwq:1,2014-07-10T18:45:00Z,29.7858,-84.8752,2.29,3.6,1111122 
NERRS,ioos:station:NOAA.NERRS:apaebwq:1,2014-07-10T20:45:00Z,29.7858,-84.8752,2.08,3.5,1111122 
NERRS,ioos:station:NOAA.NERRS:apaebwq:1,2014-07-10T21:45:00Z,29.7858,-84.8752,1.98,3.6,1111122 
NERRS,ioos:station:NOAA.NERRS:apaebwq:1,2014-07-10T23:45:00Z,29.7858,-84.8752,1.76,3.4,1111122 
NERRS,ioos:station:NOAA.NERRS:apaebwq:1,2014-07-11T00:45:00Z,29.7858,-84.8752,1.66,3.2,1111122 
NERRS,ioos:station:NOAA.NERRS:apaebwq:1,2014-07-11T02:45:00Z,29.7858,-84.8752,1.52,3.1,1111122 
NERRS,ioos:station:NOAA.NERRS:apaebwq:1,2014-07-11T03:45:00Z,29.7858,-84.8752,1.54,3.1,1111122 
NERRS,ioos:station:NOAA.NERRS:apaebwq:1,2014-07-11T04:45:00Z,29.7858,-84.8752,1.65,3.2,1111122 
NERRS,ioos:station:NOAA.NERRS:apaebwq:1,2014-07-11T06:45:00Z,29.7858,-84.8752,1.96,3.5,1111122 
NERRS,ioos:station:NOAA.NERRS:apaebwq:1,2014-07-11T07:45:00Z,29.7858,-84.8752,2.08,3.5,1111122 
NERRS,ioos:station:NOAA.NERRS:apaebwq:1,2014-07-11T08:45:00Z,29.7858,-84.8752,2.18,3.4,1111122 
NERRS,ioos:station:NOAA.NERRS:apaebwq:1,2014-07-11T09:45:00Z,29.7858,-84.8752,2.22,3.4,1111122 
NERRS,ioos:station:NOAA.NERRS:apaebwq:1,2014-07-11T10:45:00Z,29.7858,-84.8752,2.23,3.3,1111122 
NERRS,ioos:station:NOAA.NERRS:apaebwq:1,2014-07-11T11:45:00Z,29.7858,-84.8752,2.1,3.3,1111122 
NERRS,ioos:station:NOAA.NERRS:apaebwq:1,2014-07-11T12:45:00Z,29.7858,-84.8752,2.06,3.4,1111122 
NERRS,ioos:station:NOAA.NERRS:apaebwq:1,2014-07-11T13:45:00Z,29.7858,-84.8752,2.06,3.3,1111122 
NERRS,ioos:station:NOAA.NERRS:apaebwq:1,2014-07-11T14:45:00Z,29.7858,-84.8752,2.06,3.4,1111122 
NERRS,ioos:station:NOAA.NERRS:apaebwq:1,2014-07-11T15:45:00Z,29.7858,-84.8752,2.11,3.3,1111122 
NERRS,ioos:station:NOAA.NERRS:apaebwq:1,2014-07-11T16:45:00Z,29.7858,-84.8752,2.22,3.4,1111122 
NERRS,ioos:station:NOAA.NERRS:apaebwq:1,2014-07-11T17:45:00Z,29.7858,-84.8752,2.31,3.4,1111122 
NERRS,ioos:station:NOAA.NERRS:apaebwq:1,2014-07-11T18:45:00Z,29.7858,-84.8752,2.36,3.4,1111122 
NERRS,ioos:station:NOAA.NERRS:apaebwq:1,2014-07-11T19:45:00Z,29.7858,-84.8752,2.32,3.4,1111122 
NERRS,ioos:station:NOAA.NERRS:apaebwq:1,2014-07-11T20:45:00Z,29.7858,-84.8752,2.23,3.4,1111122 
NERRS,ioos:station:NOAA.NERRS:apaebwq:1,2014-07-11T22:45:00Z,29.7858,-84.8752,1.96,3.2,1111122 
NERRS,ioos:station:NOAA.NERRS:apaebwq:1,2014-07-11T23:45:00Z,29.7858,-84.8752,1.84,3.3,1111122 
NERRS,ioos:station:NOAA.NERRS:apaebwq:1,2014-07-12T01:45:00Z,29.7858,-84.8752,1.64,3.3,1111122 
NERRS,ioos:station:NOAA.NERRS:apaebwq:1,2014-07-12T02:45:00Z,29.7858,-84.8752,1.55,3.1,1111122 
NERRS,ioos:station:NOAA.NERRS:apaebwq:1,2014-07-12T03:45:00Z,29.7858,-84.8752,1.49,3.2,1111122 
NERRS,ioos:station:NOAA.NERRS:apaebwq:1,2014-07-12T04:45:00Z,29.7858,-84.8752,1.49,3.2,1111122 
NERRS,ioos:station:NOAA.NERRS:apaebwq:1,2014-07-12T05:45:00Z,29.7858,-84.8752,1.63,3.1,1111122 
NERRS,ioos:station:NOAA.NERRS:apaebwq:1,2014-07-12T06:45:00Z,29.7858,-84.8752,1.8,3.3,1111122 
NERRS,ioos:station:NOAA.NERRS:apaebwq:1,2014-07-12T07:45:00Z,29.7858,-84.8752,1.96,3.2,1111122 
NERRS,ioos:station:NOAA.NERRS:apaebwq:1,2014-07-12T08:45:00Z,29.7858,-84.8752,2.1,3.1,1111122 
NERRS,ioos:station:NOAA.NERRS:apaebwq:1,2014-07-12T09:45:00Z,29.7858,-84.8752,2.19,3.2,1111122 
NERRS,ioos:station:NOAA.NERRS:apaebwq:1,2014-07-12T10:45:00Z,29.7858,-84.8752,2.2,3.2,1111122 
NERRS,ioos:station:NOAA.NERRS:apaebwq:1,2014-07-12T11:45:00Z,29.7858,-84.8752,2.14,3.2,1111122 
NERRS,ioos:station:NOAA.NERRS:apaebwq:1,2014-07-12T12:45:00Z,29.7858,-84.8752,2.09,3.2,1111122 
NERRS,ioos:station:NOAA.NERRS:apaebwq:1,2014-07-12T13:45:00Z,29.7858,-84.8752,2.07,3.2,1111122 
NERRS,ioos:station:NOAA.NERRS:apaebwq:1,2014-07-12T14:45:00Z,29.7858,-84.8752,2.09,3.2,1111122 
NERRS,ioos:station:NOAA.NERRS:apaebwq:1,2014-07-12T15:45:00Z,29.7858,-84.8752,2.09,3.2,1111122 
NERRS,ioos:station:NOAA.NERRS:apaebwq:1,2014-07-12T17:45:00Z,29.7858,-84.8752,2.31,3.1,1111122 
NERRS,ioos:station:NOAA.NERRS:apaebwq:1,2014-07-12T19:45:00Z,29.7858,-84.8752,2.38,3.1,1111122 
NERRS,ioos:station:NOAA.NERRS:apaebwq:1,2014-07-12T20:45:00Z,29.7858,-84.8752,2.32,3.2,1111122 
NERRS,ioos:station:NOAA.NERRS:apaebwq:1,2014-07-12T21:45:00Z,29.7858,-84.8752,2.22,3.2,1111122 
NERRS,ioos:station:NOAA.NERRS:apaebwq:1,2014-07-12T22:45:00Z,29.7858,-84.8752,2.09,3.2,1111122 
NERRS,ioos:station:NOAA.NERRS:apaebwq:1,2014-07-12T23:45:00Z,29.7858,-84.8752,1.94,3.2,1111122 
NERRS,ioos:station:NOAA.NERRS:apaebwq:1,2014-07-13T00:45:00Z,29.7858,-84.8752,1.81,3.3,1111122 
NERRS,ioos:station:NOAA.NERRS:apaebwq:1,2014-07-13T01:45:00Z,29.7858,-84.8752,1.7,3.2,1111122 
NERRS,ioos:station:NOAA.NERRS:apaebwq:1,2014-07-13T02:45:00Z,29.7858,-84.8752,1.6,3.1,1111122 
NERRS,ioos:station:NOAA.NERRS:apaebwq:1,2014-07-13T03:45:00Z,29.7858,-84.8752,1.53,3.2,1111122 
NERRS,ioos:station:NOAA.NERRS:apaebwq:1,2014-07-13T04:45:00Z,29.7858,-84.8752,1.49,3.1,1111122 
NERRS,ioos:station:NOAA.NERRS:apaebwq:1,2014-07-13T06:45:00Z,29.7858,-84.8752,1.74,3.2,1111122 
NERRS,ioos:station:NOAA.NERRS:apaebwq:1,2014-07-13T07:45:00Z,29.7858,-84.8752,1.91,3.3,1111122 
NERRS,ioos:station:NOAA.NERRS:apaebwq:1,2014-07-13T08:45:00Z,29.7858,-84.8752,2.06,3.2,1111122 
NERRS,ioos:station:NOAA.NERRS:apaebwq:1,2014-07-13T09:45:00Z,29.7858,-84.8752,2.2,3.1,1111122 
NERRS,ioos:station:NOAA.NERRS:apaebwq:1,2014-07-13T10:45:00Z,29.7858,-84.8752,2.25,3.3,1111122 
NERRS,ioos:station:NOAA.NERRS:apaebwq:1,2014-07-13T11:45:00Z,29.7858,-84.8752,2.26,3.5,1111122 
NERRS,ioos:station:NOAA.NERRS:apaebwq:1,2014-07-13T12:45:00Z,29.7858,-84.8752,2.18,3.3,1111122 
NERRS,ioos:station:NOAA.NERRS:apaebwq:1,2014-07-13T13:45:00Z,29.7858,-84.8752,2.08,3.2,1111122 
NERRS,ioos:station:NOAA.NERRS:apaebwq:1,2014-07-13T14:45:00Z,29.7858,-84.8752,2.04,3.2,1111122 
NERRS,ioos:station:NOAA.NERRS:apaebwq:1,2014-07-13T15:45:00Z,29.7858,-84.8752,2.07,3.2,1111122 
NERRS,ioos:station:NOAA.NERRS:apaebwq:1,2014-07-13T16:45:00Z,29.7858,-84.8752,2.12,3.2,1111122 
NERRS,ioos:station:NOAA.NERRS:apaebwq:1,2014-07-13T17:45:00Z,29.7858,-84.8752,2.19,4.4,1111122 
NERRS,ioos:station:NOAA.NERRS:apaebwq:1,2014-07-13T18:45:00Z,29.7858,-84.8752,2.29,5.4,1111122 
NERRS,ioos:station:NOAA.NERRS:apaebwq:1,2014-07-13T19:45:00Z,29.7858,-84.8752,2.36,5.9,1111122 
NERRS,ioos:station:NOAA.NERRS:apaebwq:1,2014-07-13T20:45:00Z,29.7858,-84.8752,2.37,6.3,1111122 
NERRS,ioos:station:NOAA.NERRS:apaebwq:1,2014-07-13T22:45:00Z,29.7858,-84.8752,2.2,4.9,1111122 
NERRS,ioos:station:NOAA.NERRS:apaebwq:1,2014-07-14T00:45:00Z,29.7858,-84.8752,1.94,3.2,1111122 
NERRS,ioos:station:NOAA.NERRS:apaebwq:1,2014-07-14T01:45:00Z,29.7858,-84.8752,1.83,3.2,1111122 
NERRS,ioos:station:NOAA.NERRS:apaebwq:1,2014-07-14T02:45:00Z,29.7858,-84.8752,1.72,3.1,1111122 
NERRS,ioos:station:NOAA.NERRS:apaebwq:1,2014-07-14T03:45:00Z,29.7858,-84.8752,1.63,3.0,1111122 
NERRS,ioos:station:NOAA.NERRS:apaebwq:1,2014-07-14T04:45:00Z,29.7858,-84.8752,1.56,3.0,1111122 
NERRS,ioos:station:NOAA.NERRS:apaebwq:1,2014-07-14T06:45:00Z,29.7858,-84.8752,1.66,3.1,1111122 
NERRS,ioos:station:NOAA.NERRS:apaebwq:1,2014-07-14T07:45:00Z,29.7858,-84.8752,1.83,3.3,1111122 
NERRS,ioos:station:NOAA.NERRS:apaebwq:1,2014-07-14T08:45:00Z,29.7858,-84.8752,1.98,4.1,1111122 